Miscellaneous Local Product
Issued by NWS North Platte, NE

Home | Current Version | Previous Version | Graphics & Text | Print | Product List | Glossary On
Versions: 1 2 3 4 5 6 7 8 9 10 11 12 13 14 15 16 17 18 19 20 21 22 23 24 25 26 27 28 29 30 31 32 33 34 35 36 37 38 39 40 41 42 43 44 45 46 47 48 49 50
000
AXUS43 KLBF 250510
MISLBF


WESTERN AND NORTH CENTRAL NEBRASKA HOURLY WEATHER ROUNDUP
NATIONAL WEATHER SERVICE NORTH PLATTE NE
1200 AM CDT SAT OCT 25 2014

***STATIONS NOT REPORTING VARIABLES SUCH AS SKY/WEATHER OR
PRESSURE ARE PROVIDED BY THE NEBRASKA DEPARTMENT OF
ROADS...RAWS...AND APRS NETWORKS...AND ARE NOT UNDER
NATIONAL WEATHER SERVICE QUALITY CONTROL***

...OBSERVATIONS IN AND NEAR THE EASTERN PANHANDLE OF NEBRASKA...

CITY           SKY/WX    TMP DP  RH WIND       PRES   REMARKS
PINE RIDGE     CLEAR     41  35  79 CALM      30.13R
CHADRON        CLEAR     40  35  83 CALM      30.13R
ALLIANCE       CLEAR     37  33  85 W7        30.11R WCI  32
SIDNEY         CLEAR     46  34  62 SW7       30.15S
WHITECLAY        N/A     36  32  84 CALM        N/A
RUSHVILLE        N/A     42  33  72 N10         N/A
CRESCENT LAKE    N/A     53  28  38 N6          N/A
LISCO            N/A     45  31  58 W6          N/A
BIG SPRINGS      N/A     55  37  50 W3          N/A
LEWELLEN         N/A     45  36  70 CALM        N/A
$$

...OBSERVATIONS IN NORTH CENTRAL NEBRASKA...

CITY           SKY/WX    TMP DP  RH WIND       PRES   REMARKS
VALENTINE      CLEAR     48  35  60 NW8       30.07R
THEDFORD       CLEAR     48  35  60 CALM      30.07S
AINSWORTH      CLEAR     49  37  64 CALM      30.05S
O`NEILL        CLEAR     50  41  72 SW3       30.04S
ORD            CLEAR     43  39  86 CALM      30.03F
BROKEN BOW     CLEAR     46  40  79 CALM      30.05S
BROWNLEE         N/A     61  29  30 E3          N/A
SPRINGVIEW       N/A     43  36  77 CALM        N/A
BREWSTER         N/A     46  38  76 CALM        N/A
ROSE             N/A     62  40  45 E5          N/A
NEWPORT          N/A     48  38  67 CALM        N/A
SARGENT          N/A     45  42  89 CALM        N/A
COMSTOCK         N/A     55  44  64 CALM        N/A
CHAMBERS         N/A     47  36  65 CALM        N/A
EWING            N/A     52  41  67 CALM        N/A
$$

...OBSERVATIONS IN SOUTHWEST NEBRASKA AND FAR NORTHEAST COLORADO...

CITY           SKY/WX    TMP DP  RH WIND       PRES   REMARKS
WRAY           FAIR      58  28  31 W3        30.12R
HOLYOKE        FAIR      46  36  66 W6        30.13S
IMPERIAL       CLEAR     53  33  46 W8        30.10R
OGALLALA       CLEAR     47  36  64 W3        30.08S
NORTH PLATTE   CLEAR     45  39  79 S3        30.06R
MCCOOK         CLEAR     49  36  61 NW6       30.07R
LEXINGTON      CLEAR     47  41  78 CALM      30.06R HAZE
PAXTON           N/A     46  34  62 CALM        N/A
SUTHERLAND       N/A     45  32  61 CALM        N/A
BRADY            N/A     48  37  67 CALM        N/A
GOTHENBURG       N/A     56  35  46 CALM        N/A
CALLAWAY         N/A     51  42  71 SE5         N/A
$$

...SOME WEATHER OBSERVATIONS FROM AROUND THE REGION...

CITY           SKY/WX    TMP DP  RH WIND       PRES   REMARKS
DENVER         CLEAR     55  27  34 SW9       30.21S
LARAMIE        CLEAR     42  22  44 S10       30.32R
CHEYENNE       CLEAR     48  26  42 NW5       30.24S
SCOTTSBLUFF    CLEAR     50  32  50 NE3       30.12R
RAPID CITY     CLEAR     45  33  63 NW8       30.13R
PIERRE         CLOUDY    57  36  45 N12       30.06R
WINNER         FAIR      54  32  43 W6        30.06R
SIOUX FALLS    CLEAR     54  41  61 CALM      30.01R
OMAHA          CLEAR     52  51  97 NW5       30.01S
GRAND ISLAND   CLEAR     50  44  80 CALM      30.04S
KANSAS CITY    CLEAR     62  60  93 S9        29.99S
WICHITA        CLEAR     62  58  86 S5        30.02S
HAYS           CLEAR     59  48  67 W6        30.04R
LIBERAL        CLEAR     57  43  58 SW6       30.11S
GOODLAND       CLEAR     50  35  56 CALM      30.12F
$$



USA.gov is the U.S. government's official web portal to all federal, state and local government web resources and services.